Volver al catálogo

USA 562

ActivoMilitarVLEO
NORAD 65708·PAYLOAD·🇺🇸 United States

Lanzado Sep 22, 2025 desde Vandenberg Space Force Base

Loading…

Próximos Pases (próximas 24 horas)

TLE

ObsoletoSource: Mike McCants

Época: May 5, 2026, 19:48 UTC

1 65708U 25213E   26125.82553180 0.00000000  00000-0  00000-0 0    00
2 65708  70.0210 133.6644 0004000  90.1270 269.8729 14.96713400    06

Sigue USA 562 en tiempo real con AllMySat

Download on the App Store